Notices

What's New in latest Release from April 7th, 2021:

- Updated Glossary, including Speed of Maximum Gust, and Total Hourly Precipitation

- Updated national and regional climate services offices contacts and prices information

- Addition of station inventory lists for 1981-2010, 1971-2000, and 1961-1990 Normals.

If you haven't already, please take our survey and provide feedback about our website: https://eccc.sondage-survey.ca/f/LanguageSelection.aspx?s=442ca660-fcf1-47c0-95a9-59707d6fd709

Hourly Data Report for January 05, 2021

CARBERRY CS
MANITOBA
Current Station Operator: ECCC - MSC

49°54'20.900" N
99°21'26.800" W
383.50 m
5010547
71170
WZE

Download Data

Hourly Data (January 2021)
Hourly Data Report for January 5, 2021
TIME
LST
Temp Definition
°C
Dew Point Definition
°C
Rel Hum Definition
%
Precip. Amount Definition
mm

Wind Dir Definition
10's deg

Wind Spd Definition
km/h
Visibility Definition
km
Stn Press Definition
kPa
Hmdx Definition


Wind Chill Definition


Weather Definition


00:00 -11.5 -12.0 96 0.0 21 8   96.67   -16 LegendNANA
01:00 -14.6 -16.3 87 0.0 8 4   96.67   -17 LegendNANA
02:00 -15.9 -17.8 85 0.0   0   96.75     LegendNANA
03:00 -15.7 -17.2 88 0.0 18 2   96.78   -17 LegendNANA
04:00 -16.5 -18.1 88 0.0 13 2   96.80   -18 LegendNANA
05:00 -15.9 -17.5 88 0.0 14 2   96.76   -17 LegendNANA
06:00 -16.5 -18.6 84 0.0 0 1   96.77   -17 LegendNANA
07:00 -14.7 -15.9 90 0.0 14 7   96.79   -19 LegendNANA
08:00 -14.6 -16.1 88 0.0 10 10   96.75   -21 LegendNANA
09:00 -12.2 -13.5 90 0.0 16 5   96.85   -15 LegendNANA
10:00 -10.0 -11.4 89 0.0 15 9   96.91   -15 LegendNANA
11:00 -7.3 -9.5 84 0.0 16 11   96.90   -12 LegendNANA
12:00 -5.4 -8.6 78 0.0 14 12   96.85   -10 LegendNANA
13:00 -4.2 -7.7 77 0.0 14 12   96.84   -9 LegendNANA
14:00 -2.9 -6.9 74 0.0 13 13   96.83   -8 LegendNANA
15:00 -2.3 -6.3 74 0.0 12 15   96.85   -7 LegendNANA
16:00 -2.9 -6.5 76 0.0 22 4   96.99   -4 LegendNANA
17:00 -3.6 -6.6 80 0.0 10 7   97.00   -7 LegendNANA
18:00 -2.6 -5.7 79 0.0 13 14   97.03   -7 LegendNANA
19:00 -2.3 -5.6 78 0.0 16 11   97.09   -6 LegendNANA
20:00 -2.4 -5.9 77 0.0 15 17   97.09   -8 LegendNANA
21:00 -2.2 -5.7 77 0.0 16 16   97.11   -7 LegendNANA
22:00 -2.6 -5.6 80 0.0 18 17   97.14   -8 LegendNANA
23:00 -2.7 -5.4 82 0.0 17 16   97.16   -8 LegendNANA

Notes on Data Quality.

Legend

  • E = Estimated
  • M = Missing
  • NA = Not Available*
  • [empty] = Indicates an unobserved value
Date modified: